When you browse on this site, cookies collect data to enhance your experience and personalize the content and advertising you see.
Visit our Privacy Policy to learn more. By continuing to use the site, you agree to this use of cookies and data.
  • In Österreich
  • Länderverzeichnis
  • Für 7 Tage
  • Wassertemperatur
  • Satellitenkarten
  • Wetterkarte
  • News
  • Widgets
  • user-avatar
    Anmelden

    Stündliche Wetter Bromierzyk

    Heute, 21 Mai, Dienstag

    Zeit Temperatur Niederschläge Wind Luftdruck Luftfeuchtigkeit
    00:00 +15°C° 0 mm 2 m/S 747 mmHg 87%
    01:00 +15°C° 0 mm 2 m/S 747 mmHg 89%
    02:00 +14°C° 0 mm 2 m/S 747 mmHg 90%
    03:00 +14°C° 0 mm 2 m/S 747 mmHg 90%
    04:00 +14°C° 0 mm 1 m/S 747 mmHg 91%
    05:00 +15°C° 0 mm 1 m/S 747 mmHg 87%
    06:00 +16°C° 0 mm 1 m/S 747 mmHg 82%
    07:00 +19°C° 0 mm 1 m/S 747 mmHg 78%
    08:00 +19°C° 0.2 mm 2 m/S 747 mmHg 77%
    09:00 +20°C° 0.2 mm 2 m/S 747 mmHg 75%
    10:00 +21°C° 0.2 mm 3 m/S 747 mmHg 74%
    11:00 +21°C° 1.1 mm 3 m/S 746 mmHg 73%
    12:00 +22°C° 1.1 mm 4 m/S 746 mmHg 73%
    13:00 +22°C° 1.1 mm 4 m/S 745 mmHg 73%
    14:00 +22°C° 0.6 mm 5 m/S 745 mmHg 73%
    15:00 +22°C° 0.6 mm 5 m/S 745 mmHg 74%
    16:00 +22°C° 0.6 mm 5 m/S 745 mmHg 74%
    17:00 +20°C° 0.1 mm 5 m/S 745 mmHg 76%
    18:00 +19°C° 0.1 mm 5 m/S 745 mmHg 79%
    19:00 +16°C° 0.1 mm 5 m/S 744 mmHg 81%
    20:00 +15°C° 0 mm 4 m/S 745 mmHg 83%
    21:00 +14°C° 0 mm 4 m/S 745 mmHg 86%
    22:00 +13°C° 0 mm 4 m/S 745 mmHg 88%
    23:00 +13°C° 0 mm 4 m/S 745 mmHg 88%

    Morgen, 22 Mai, Mittwoch

    Zeit Temperatur Niederschläge Wind Luftdruck Luftfeuchtigkeit
    00:00 +13°C° 0 mm 4 m/S 745 mmHg 88%
    01:00 +14°C° 0 mm 4 m/S 745 mmHg 88%
    02:00 +14°C° 0.1 mm 4 m/S 745 mmHg 89%
    03:00 +14°C° 0.1 mm 4 m/S 745 mmHg 90%
    04:00 +14°C° 0.1 mm 4 m/S 745 mmHg 91%
    05:00 +15°C° 0.1 mm 4 m/S 745 mmHg 90%
    06:00 +15°C° 0.1 mm 4 m/S 746 mmHg 88%
    07:00 +15°C° 0.1 mm 4 m/S 746 mmHg 86%
    08:00 +17°C° 0.1 mm 4 m/S 746 mmHg 84%
    09:00 +17°C° 0.1 mm 5 m/S 746 mmHg 81%
    10:00 +17°C° 0.1 mm 5 m/S 747 mmHg 78%
    11:00 +19°C° 0.2 mm 4 m/S 747 mmHg 75%
    12:00 +20°C° 0.2 mm 4 m/S 746 mmHg 72%
    13:00 +21°C° 0.2 mm 4 m/S 746 mmHg 69%
    14:00 +21°C° 0.5 mm 4 m/S 746 mmHg 69%
    15:00 +21°C° 0.5 mm 4 m/S 746 mmHg 69%
    16:00 +21°C° 0.5 mm 4 m/S 746 mmHg 69%
    17:00 +20°C° 0.2 mm 3 m/S 746 mmHg 74%
    18:00 +19°C° 0.2 mm 3 m/S 747 mmHg 78%
    19:00 +18°C° 0.2 mm 2 m/S 747 mmHg 82%
    20:00 +17°C° 0 mm 2 m/S 747 mmHg 85%
    21:00 +16°C° 0 mm 2 m/S 748 mmHg 88%
    22:00 +15°C° 0 mm 2 m/S 748 mmHg 91%
    23:00 +15°C° 0.1 mm 1 m/S 748 mmHg 92%

    übermorgen, 23 Mai, Donnerstag

    Zeit Temperatur Niederschläge Wind Luftdruck Luftfeuchtigkeit
    00:00 +14°C° 0.1 mm 1 m/S 748 mmHg 92%
    01:00 +14°C° 0.1 mm 1 m/S 749 mmHg 93%
    02:00 +14°C° 0.3 mm 2 m/S 749 mmHg 94%
    03:00 +13°C° 0.3 mm 2 m/S 749 mmHg 95%
    04:00 +13°C° 0.3 mm 2 m/S 749 mmHg 96%
    05:00 +13°C° 0.4 mm 3 m/S 750 mmHg 95%
    06:00 +14°C° 0.4 mm 4 m/S 750 mmHg 93%
    07:00 +15°C° 0.4 mm 4 m/S 751 mmHg 92%
    08:00 +15°C° 0.2 mm 4 m/S 751 mmHg 91%
    09:00 +15°C° 0.2 mm 5 m/S 751 mmHg 90%
    10:00 +16°C° 0.2 mm 5 m/S 751 mmHg 89%
    11:00 +16°C° 0.1 mm 6 m/S 751 mmHg 88%
    12:00 +16°C° 0.1 mm 6 m/S 752 mmHg 86%
    13:00 +16°C° 0.1 mm 7 m/S 752 mmHg 85%
    14:00 +16°C° 0.1 mm 7 m/S 752 mmHg 84%
    15:00 +16°C° 0.1 mm 6 m/S 752 mmHg 84%
    16:00 +16°C° 0.1 mm 6 m/S 752 mmHg 83%
    17:00 +15°C° 0 mm 6 m/S 753 mmHg 83%
    18:00 +15°C° 0 mm 5 m/S 753 mmHg 83%
    19:00 +14°C° 0 mm 4 m/S 753 mmHg 83%
    20:00 +13°C° 0 mm 4 m/S 753 mmHg 82%
    21:00 +12°C° 0 mm 4 m/S 754 mmHg 81%
    22:00 +11°C° 0 mm 4 m/S 754 mmHg 80%
    23:00 +11°C° 0 mm 4 m/S 754 mmHg 80%

    24 Mai, Freitag

    Zeit Temperatur Niederschläge Wind Luftdruck Luftfeuchtigkeit
    00:00 +10°C° 0 mm 4 m/S 754 mmHg 79%
    01:00 +10°C° 0 mm 4 m/S 754 mmHg 78%
    02:00 +8°C° 0 mm 4 m/S 754 mmHg 80%
    03:00 +7°C° 0 mm 4 m/S 754 mmHg 81%
    04:00 +7°C° 0 mm 3 m/S 754 mmHg 83%
    05:00 +8°C° 0 mm 4 m/S 754 mmHg 81%
    06:00 +10°C° 0 mm 4 m/S 754 mmHg 79%
    07:00 +11°C° 0 mm 4 m/S 754 mmHg 78%
    08:00 +13°C° 0 mm 4 m/S 754 mmHg 72%
    09:00 +15°C° 0 mm 4 m/S 754 mmHg 66%
    10:00 +18°C° 0 mm 4 m/S 754 mmHg 60%
    11:00 +19°C° 0 mm 4 m/S 753 mmHg 57%
    12:00 +19°C° 0 mm 4 m/S 753 mmHg 55%
    13:00 +20°C° 0 mm 4 m/S 752 mmHg 52%
    14:00 +20°C° 0 mm 4 m/S 752 mmHg 54%
    15:00 +20°C° 0 mm 4 m/S 752 mmHg 56%
    16:00 +20°C° 0 mm 3 m/S 752 mmHg 58%
    17:00 +19°C° 0.1 mm 3 m/S 751 mmHg 65%
    18:00 +17°C° 0.1 mm 3 m/S 751 mmHg 72%
    19:00 +16°C° 0.1 mm 2 m/S 751 mmHg 79%
    20:00 +15°C° 0 mm 2 m/S 751 mmHg 81%
    21:00 +15°C° 0 mm 2 m/S 751 mmHg 84%
    22:00 +14°C° 0 mm 2 m/S 751 mmHg 86%
    23:00 +13°C° 0 mm 2 m/S 751 mmHg 87%

    25 Mai, Samstag

    Zeit Temperatur Niederschläge Wind Luftdruck Luftfeuchtigkeit
    00:00 +13°C° 0 mm 2 m/S 751 mmHg 89%
    01:00 +12°C° 0 mm 2 m/S 751 mmHg 90%
    02:00 +12°C° 0 mm 2 m/S 751 mmHg 91%
    03:00 +12°C° 0 mm 2 m/S 751 mmHg 91%
    04:00 +12°C° 0 mm 2 m/S 750 mmHg 91%
    05:00 +12°C° 0 mm 3 m/S 750 mmHg 86%
    06:00 +14°C° 0 mm 3 m/S 750 mmHg 80%
    07:00 +17°C° 0 mm 4 m/S 750 mmHg 75%
    08:00 +18°C° 0.2 mm 4 m/S 750 mmHg 71%
    09:00 +19°C° 0.2 mm 5 m/S 750 mmHg 68%
    10:00 +20°C° 0.2 mm 5 m/S 750 mmHg 64%
    11:00 +20°C° 0.9 mm 5 m/S 750 mmHg 65%
    12:00 +21°C° 0.9 mm 5 m/S 749 mmHg 66%
    13:00 +21°C° 0.9 mm 5 m/S 749 mmHg 67%
    14:00 +21°C° 0.2 mm 5 m/S 749 mmHg 66%
    15:00 +21°C° 0.2 mm 5 m/S 749 mmHg 65%
    16:00 +21°C° 0.2 mm 5 m/S 749 mmHg 64%
    17:00 +20°C° 0.1 mm 4 m/S 749 mmHg 70%
    18:00 +18°C° 0.1 mm 3 m/S 749 mmHg 76%
    19:00 +17°C° 0.1 mm 2 m/S 749 mmHg 82%
    20:00 +16°C° 0 mm 2 m/S 750 mmHg 84%
    21:00 +15°C° 0 mm 2 m/S 750 mmHg 86%
    22:00 +14°C° 0 mm 2 m/S 750 mmHg 88%
    23:00 +13°C° 0 mm 2 m/S 751 mmHg 89%

    26 Mai, Sonntag

    Zeit Temperatur Niederschläge Wind Luftdruck Luftfeuchtigkeit
    00:00 +12°C° 0 mm 2 m/S 751 mmHg 91%
    01:00 +12°C° 0 mm 2 m/S 751 mmHg 92%
    02:00 +10°C° 0 mm 2 m/S 751 mmHg 92%
    03:00 +10°C° 0 mm 2 m/S 751 mmHg 91%
    04:00 +9°C° 0 mm 2 m/S 751 mmHg 90%
    05:00 +10°C° 0.1 mm 2 m/S 751 mmHg 87%
    06:00 +12°C° 0.1 mm 2 m/S 751 mmHg 85%
    07:00 +12°C° 0.1 mm 2 m/S 751 mmHg 82%
    08:00 +13°C° 0 mm 3 m/S 751 mmHg 75%
    09:00 +16°C° 0 mm 3 m/S 751 mmHg 69%
    10:00 +18°C° 0 mm 4 m/S 751 mmHg 62%
    11:00 +18°C° 0.3 mm 4 m/S 751 mmHg 63%
    12:00 +19°C° 0.3 mm 5 m/S 751 mmHg 64%
    13:00 +19°C° 0.3 mm 6 m/S 750 mmHg 65%
    14:00 +19°C° 0.6 mm 6 m/S 750 mmHg 67%
    15:00 +17°C° 0.6 mm 7 m/S 750 mmHg 70%
    16:00 +16°C° 0.6 mm 7 m/S 750 mmHg 72%
    17:00 +15°C° 0 mm 6 m/S 750 mmHg 74%
    18:00 +14°C° 0 mm 5 m/S 750 mmHg 76%
    19:00 +13°C° 0 mm 4 m/S 751 mmHg 78%
    20:00 +12°C° 0 mm 4 m/S 751 mmHg 81%
    21:00 +11°C° 0 mm 3 m/S 752 mmHg 85%
    22:00 +9°C° 0 mm 3 m/S 752 mmHg 89%
    23:00 +9°C° 0 mm 3 m/S 752 mmHg 90%
    Mehr zeigen